User: anonymous   Login
Location: Irma
(52.9170°N, 111.2330°W)
Time: 18:40:36
(UTC-06:00)
Language:

Cosmos 2279 Rocket - Orbit

View from above orbital plane
View from above orbital plane
View from above satellite
View from above satellite

Ground track
Ground track

The orbit data is extracted from the following two-line orbital elements,

1 23093U 94024B   16206.90322830 -.00000023 +00000-0 -38304-4 0  9997
2 23093 082.9470 357.8983 0009757 194.3318 165.7564 13.77702412586129
Epoch (UTC): 24 July 2016 21:40:38
Eccentricity: 0.0009757
inclination: 82.9470°
perigee height: 965 km
apogee height: 979 km
right ascension of ascending node: 357.8983°
argument of perigee: 194.3318°
revolutions per day: 13.77702412
mean anomaly at epoch: 165.7564°
orbit number at epoch: 58612

The dashed part of the orbit path shows where the satellite is in the earth's shadow,  

DLR